Regional Weather Roundup
Issued by NWS

Home | Current Version | Previous Version | Text Only | Print | Product List | Glossary Off
Versions: 1 2 3 4 5 6 7 8 9 10 11 12 13 14 15 16 17 18 19 20 21 22 23 24 25 26 27 28 29 30 31 32 33 34 35 36 37 38 39 40 41 42 43 44 45 46 47 48 49 50

000
ASUS43 KLMK 200410
RWRKY
KENTUCKY REGIONAL WEATHER ROUNDUP
NATIONAL WEATHER SERVICE LOUISVILLE KY
1200 AM EDT THU JUL 20 2017

NOTE "FAIR" INDICATES FEW OR NO CLOUDS BELOW 12,000 FEET
WITH NO SIGNIFICANT WEATHER AND/OR OBSTRUCTIONS TO VISIBILITY.

KYZ001>023-026-027-061>063-070>075-200500-
WESTERN AND SOUTH CENTRAL KENTUCKY

CITY           SKY/WX    TMP DP  RH WIND       PRES   REMARKS
PADUCAH        CLEAR     77  73  87 CALM      30.08R
HENDERSON      CLEAR     78  75  90 CALM      30.09R
OWENSBORO      CLEAR     78  73  84 SE5       30.10R
HOPKINSVILLE   CLEAR     80  75  82 CALM      30.10R
BOWLING GREEN  CLEAR     79  74  84 CALM      30.12R
GLASGOW        CLEAR     75  74  99 CALM      30.12S
$$

KYZ024-025-028>034-038-045-046-053-200500-
NORTH CENTRAL KENTUCKY

CITY           SKY/WX    TMP DP  RH WIND       PRES   REMARKS
LOUISVILLE/SDF CLEAR     84  68  58 CALM      30.10R
LOUISVILLE/LOU CLEAR     77  72  84 CALM      30.11R
FORT KNOX      CLEAR     73  72  97 CALM      30.10R
$$

KYZ035>037-039>044-047>052-055>060-089>105-200500-
NORTHEAST KENTUCKY

CITY           SKY/WX    TMP DP  RH WIND       PRES   REMARKS
LEXINGTON      CLEAR     75  66  73 CALM      30.13R
COVINGTON      CLEAR     73  66  78 CALM      30.11R
FRANKFORT      CLEAR     74  67  78 CALM      30.12R
$$

KYZ054-064>069-076>088-106>120-200500-
SOUTHEAST KENTUCKY

CITY           SKY/WX    TMP DP  RH WIND       PRES   REMARKS
JACKSON        CLEAR     77  66  68 CALM      30.14S
LONDON         CLEAR     72  66  81 CALM      30.14S
SOMERSET       CLEAR     72  68  88 CALM      30.15R
MIDDLESBORO    CLEAR     72  66  83 CALM      30.16R
MONTICELLO     CLEAR     70  69  97 CALM      30.15R
$$





USA.gov is the U.S. government's official web portal to all federal, state and local government web resources and services.